{"data":{"norad_id":58903,"epoch":"2026-09-19T20:51:27.049248Z","epoch_age_seconds":72854,"freshness":"FRESH","line1":"1 58903U 24022E   26262.86906307  .00012491  00000+0  27789-3 0  9994","line2":"2 58903  97.3972 115.2488 0008629 109.0940 251.1243 15.43749770146939","mean_motion":15.4374977,"eccentricity":0.0008629,"inclination_deg":97.3972,"raan_deg":115.2488,"arg_perigee_deg":109.094,"mean_anomaly_deg":251.1243,"bstar":0.00027789,"rev_number":14693,"period_min":93.279366124213,"perigee_km":429.17500196334,"apogee_km":440.93320717161,"semimajor_km":6813.1911045675,"source":"CELESTRAK","updated_at":"2026-09-20T09:00:34.870632Z"}}